Total_Precipitation_Accumulation
2.02 1.98 1.87 1.87 1.81 2.00 2.21 2.50 2.43 2.67 2.61 2.32 1.96 1.78 1.79 1.84 1.73 1.95 2.22 2.25 2.08 2.08 2.72 3.12 3.02 2.72 2.32 1.89 1.62 1.50 1.39 1.21 1.05 0.84 0.76 0.82 0.83 0.82 0.72 0.55 0.46 0.38 0.29
2.47 2.39 2.18 2.16 2.05 2.11 2.42 2.66 2.68 3.07 2.89 2.73 2.28 2.11 1.97 1.92 1.88 2.06 2.27 2.45 2.39 2.34 2.64 3.06 3.32 3.22 2.84 2.31 1.89 1.63 1.53 1.45 1.32 1.01 0.83 0.85 0.91 0.91 0.84 0.71 0.56 0.43 0.33
2.60 2.47 2.33 2.24 2.35 2.48 2.65 2.69 2.79 3.11 2.85 2.74 2.56 2.38 2.18 2.00 1.92 2.08 2.36 2.63 2.42 2.34 2.62 2.99 3.34 3.28 3.10 2.79 2.31 2.00 1.76 1.61 1.53 1.25 0.96 0.84 0.86 0.87 0.84 0.79 0.65 0.48 0.33
2.64 2.68 2.45 2.26 2.49 2.63 2.79 2.95 2.92 2.99 3.01 2.97 2.83 2.50 2.33 2.21 1.97 2.03 2.14 2.30 2.45 2.08 2.45 2.98 3.14 3.00 3.01 3.12 3.03 2.81 2.46 2.06 1.81 1.50 1.18 1.00 0.92 0.88 0.84 0.81 0.70 0.51 0.32
2.54 2.80 2.60 2.57 2.70 2.90 2.80 2.61 2.96 3.08 3.03 3.02 2.72 2.57 2.21 2.10 2.03 1.94 1.99 2.09 2.29 2.24 2.23 2.40 2.82 2.73 2.94 3.32 3.51 3.59 3.34 2.87 2.35 1.96 1.60 1.32 1.21 1.05 0.89 0.82 0.74 0.53 0.35
2.52 2.76 2.57 2.60 2.79 2.98 3.03 3.02 3.10 3.07 2.94 3.00 2.67 2.46 2.13 1.84 1.81 1.76 1.66 1.82 1.90 1.72 1.80 1.98 2.31 2.06 2.29 2.71 3.15 3.59 3.83 3.76 3.21 2.55 2.22 2.00 1.82 1.50 1.10 0.87 0.73 0.61 0.46
2.42 2.68 2.44 2.73 2.87 2.90 3.01 3.05 3.18 3.07 2.91 3.07 2.97 2.48 2.00 1.72 1.56 1.44 1.46 1.55 1.51 1.59 1.81 2.10 2.37 2.38 2.13 2.15 2.36 2.85 3.56 4.07 3.93 3.35 3.00 2.77 2.54 2.11 1.47 1.10 0.80 0.63 0.55
2.30 2.44 2.72 2.77 2.85 2.92 2.93 2.88 2.90 2.73 2.55 2.89 2.94 2.73 2.14 1.78 1.46 1.25 1.42 1.41 1.49 1.71 1.75 1.81 2.13 2.44 2.32 2.33 2.09 2.08 2.97 3.90 4.32 4.19 3.97 3.66 3.26 2.54 1.88 1.46 1.02 0.75 0.64
2.40 2.50 2.67 2.75 2.67 2.60 2.66 2.75 2.66 2.53 2.36 2.50 2.75 2.77 2.31 1.84 1.50 1.28 1.29 1.34 1.63 1.79 1.73 1.73 1.72 1.84 1.92 2.27 2.50 2.23 2.37 2.72 3.39 4.26 4.66 4.54 3.84 2.79 2.09 1.73 1.44 1.05 0.79
2.12 2.22 2.30 2.45 2.50 2.48 2.47 2.42 2.41 2.42 2.37 2.25 2.46 2.53 2.39 2.16 1.91 1.45 1.21 1.24 1.47 1.58 1.54 1.43 1.49 1.69 1.82 2.14 2.40 2.12 1.90 1.84 2.09 3.04 3.96 4.18 3.79 2.87 2.21 1.97 1.93 1.63 1.14
1.93 1.92 2.03 2.20 2.25 2.17 2.17 2.29 2.47 2.44 2.30 2.17 2.26 2.36 2.49 2.42 2.12 1.81 1.40 1.29 1.29 1.22 1.32 1.34 1.37 1.46 1.67 1.97 2.18 1.88 1.81 1.62 1.54 1.85 2.48 2.97 3.10 2.78 2.36 2.27 2.45 2.37 1.92
1.85 1.79 1.80 1.91 1.96 1.95 1.93 1.97 2.09 2.13 2.11 2.20 2.23 2.22 2.33 2.33 2.22 2.10 1.72 1.49 1.36 1.09 1.13 1.19 1.28 1.33 1.42 1.60 1.54 1.56 1.66 1.50 1.36 1.35 1.57 1.96 2.30 2.44 2.33 2.40 2.63 2.72 2.61
1.78 1.73 1.66 1.61 1.60 1.63 1.71 1.88 1.91 1.92 2.00 2.11 2.12 2.15 2.07 2.01 2.09 2.08 1.89 1.64 1.46 1.13 1.14 1.07 1.10 1.18 1.15 1.40 1.49 1.54 1.45 1.31 1.24 1.21 1.24 1.37 1.61 1.80 1.98 2.13 2.40 2.67 2.84
1.72 1.60 1.46 1.40 1.37 1.39 1.48 1.67 1.85 1.85 1.94 1.99 1.93 1.98 1.88 1.80 1.92 1.90 1.86 1.88 1.71 1.53 1.49 1.31 1.07 1.04 1.10 1.20 1.30 1.34 1.24 1.18 1.06 0.99 0.99 1.06 1.18 1.32 1.47 1.68 1.90 2.06 2.23
1.41 1.38 1.34 1.32 1.26 1.28 1.33 1.37 1.51 1.53 1.61 1.67 1.74 1.72 1.62 1.63 1.72 1.76 1.85 1.94 1.88 1.74 1.71 1.61 1.26 1.04 1.04 1.15 1.34 1.19 1.12 1.04 0.95 0.88 0.80 0.82 0.87 0.95 1.05 1.17 1.35 1.53 1.60
1.31 1.24 1.24 1.23 1.17 1.14 1.16 1.20 1.25 1.30 1.29 1.33 1.51 1.53 1.51 1.52 1.63 1.66 1.73 1.86 1.96 1.97 1.81 1.63 1.44 1.18 1.17 1.08 1.19 1.18 1.15 1.08 0.91 0.79 0.69 0.67 0.71 0.79 0.89 0.95 1.03 1.15 1.21
1.25 1.24 1.20 1.16 1.05 0.98 0.97 1.00 1.02 1.12 1.14 1.13 1.20 1.22 1.29 1.39 1.53 1.58 1.62 1.69 1.89 2.06 1.94 1.84 1.71 1.58 1.45 1.29 1.13 1.13 1.14 1.07 0.90 0.77 0.64 0.60 0.64 0.67 0.71 0.80 0.89 1.00 1.08
0.99 0.99 0.98 1.04 1.06 1.04 1.01 1.00 0.97 0.96 1.02 1.04 1.10 1.19 1.25 1.37 1.49 1.47 1.54 1.62 1.81 2.04 2.11 2.24 2.28 2.03 1.74 1.51 1.39 1.24 1.01 0.92 0.92 0.79 0.64 0.58 0.56 0.59 0.62 0.67 0.74 0.87 0.99
0.90 0.88 0.88 0.91 0.93 1.01 1.12 1.14 1.11 1.11 1.13 1.05 1.11 1.19 1.18 1.22 1.30 1.34 1.45 1.57 1.72 1.87 2.05 2.15 2.28 2.11 1.92 1.63 1.63 1.44 1.19 1.11 0.90 0.84 0.73 0.62 0.56 0.56 0.57 0.62 0.68 0.74 0.82
0.91 0.90 0.84 0.84 0.87 0.87 0.95 1.08 1.14 1.13 1.10 1.05 1.05 1.04 1.00 1.02 1.11 1.20 1.26 1.42 1.57 1.71 1.83 1.88 2.02 2.08 2.11 2.07 2.01 1.78 1.61 1.41 1.14 0.90 0.85 0.68 0.61 0.58 0.56 0.56 0.61 0.69 0.79
0.83 0.88 0.80 0.76 0.82 0.86 0.83 0.85 0.95 0.99 0.99 0.97 0.99 0.92 0.80 0.80 0.83 0.87 0.94 1.18 1.35 1.50 1.65 1.76 1.88 2.06 2.17 2.30 2.16 2.03 1.90 1.77 1.52 1.31 1.28 1.00 0.85 0.71 0.60 0.58 0.59 0.62 0.69
0.80 0.79 0.73 0.72 0.72 0.64 0.66 0.62 0.63 0.73 0.79 0.81 0.86 0.88 0.78 0.67 0.62 0.64 0.66 0.79 0.97 1.14 1.38 1.64 1.82 2.04 2.13 2.10 2.21 2.20 2.13 1.99 1.86 1.67 1.63 1.59 1.42 1.25 1.00 0.74 0.68 0.60 0.57
0.79 0.76 0.69 0.66 0.65 0.63 0.51 0.45 0.45 0.55 0.64 0.67 0.72 0.78 0.68 0.60 0.58 0.55 0.59 0.66 0.71 0.78 0.92 1.25 1.53 1.65 1.68 1.69 1.94 2.12 2.12 2.05 2.01 1.89 1.88 1.96 1.84 1.59 1.22 1.02 0.89 0.72 0.63
0.77 0.77 0.70 0.66 0.71 0.65 0.51 0.43 0.38 0.37 0.49 0.60 0.63 0.68 0.70 0.71 0.63 0.61 0.61 0.66 0.64 0.64 0.67 0.75 0.92 1.07 1.25 1.40 1.62 1.91 2.15 2.12 2.13 2.09 2.03 2.15 2.06 1.90 1.55 1.19 0.98 0.77 0.68
0.72 0.72 0.72 0.72 0.75 0.72 0.53 0.40 0.37 0.43 0.55 0.60 0.63 0.64 0.67 0.72 0.65 0.54 0.55 0.61 0.65 0.67 0.59 0.62 0.65 0.77 0.91 1.06 1.25 1.50 1.77 2.04 2.30 2.33 2.12 2.16 2.12 2.12 2.09 1.67 1.25 0.99 0.78
0.77 0.70 0.71 0.74 0.74 0.79 0.59 0.37 0.34 0.46 0.63 0.69 0.78 0.78 0.63 0.57 0.56 0.43 0.47 0.59 0.60 0.62 0.58 0.59 0.61 0.63 0.69 0.82 0.95 1.16 1.36 1.60 1.86 2.03 2.01 2.07 2.20 2.46 2.58 2.17 1.62 1.18 0.96